Time,TemperatureF,DewpointF,PressureIn,WindDirection,WindDirectionDegrees,WindSpeedMPH,WindSpeedGustMPH,Humidity,HourlyPrecipIn,Conditions,Clouds,dailyrainin,SoftwareType,DateUTC
2013-03-05 00:02:00,30.0,24.0,30.01,SW,219,2.0,6.0,77,0.00,,,0.00,,2013-03-05 05:02:00,
2013-03-05 00:12:00,30.0,24.0,30.01,SW,219,2.0,6.0,77,0.00,,,0.00,,2013-03-05 05:12:00,
2013-03-05 00:22:00,30.0,24.0,30.01,West,263,1.0,2.0,78,0.00,,,0.00,,2013-03-05 05:22:00,
2013-03-05 00:32:00,30.0,24.0,30.02,West,276,1.0,3.0,77,0.00,,,0.00,,2013-03-05 05:32:00,
2013-03-05 00:42:00,30.0,24.0,30.02,West,276,1.0,3.0,77,0.00,,,0.00,,2013-03-05 05:42:00,
2013-03-05 00:52:00,30.0,24.0,30.03,WNW,300,1.0,3.0,77,0.00,,,0.00,,2013-03-05 05:52:00,
2013-03-05 01:01:00,30.0,24.0,30.03,West,276,1.0,3.0,77,0.00,,,0.00,,2013-03-05 06:01:00,
2013-03-05 01:11:00,30.0,24.0,30.03,West,276,1.0,3.0,77,0.00,,,0.00,,2013-03-05 06:11:00,
2013-03-05 01:22:00,30.0,24.0,30.03,West,278,1.0,3.0,77,0.00,,,0.00,,2013-03-05 06:22:00,
2013-03-05 01:32:00,30.0,23.0,30.04,WSW,242,1.0,3.0,76,0.00,,,0.00,,2013-03-05 06:32:00,
2013-03-05 01:42:00,30.0,23.0,30.04,WSW,242,1.0,3.0,76,0.00,,,0.00,,2013-03-05 06:42:00,
2013-03-05 01:52:00,30.0,24.0,30.04,WSW,243,1.0,5.0,77,0.00,,,0.00,,2013-03-05 06:52:00,
2013-03-05 02:01:00,30.0,23.0,30.04,West,278,2.0,3.0,75,0.00,,,0.00,,2013-03-05 07:01:00,
2013-03-05 02:11:00,30.0,23.0,30.04,West,278,2.0,3.0,75,0.00,,,0.00,,2013-03-05 07:11:00,
2013-03-05 02:22:00,30.0,23.0,30.05,WSW,250,1.0,3.0,76,0.00,,,0.00,,2013-03-05 07:22:00,
2013-03-05 02:32:00,30.0,23.0,30.05,West,264,1.0,3.0,76,0.00,,,0.00,,2013-03-05 07:32:00,
2013-03-05 02:42:00,30.0,23.0,30.05,West,264,1.0,3.0,76,0.00,,,0.00,,2013-03-05 07:42:00,
2013-03-05 02:52:00,30.0,23.0,30.06,WSW,252,0.0,5.0,76,0.00,,,0.00,,2013-03-05 07:52:00,
2013-03-05 03:02:00,29.0,23.0,30.06,WSW,248,1.0,3.0,77,0.00,,,0.00,,2013-03-05 08:02:00,
2013-03-05 03:11:00,29.0,23.0,30.06,WSW,248,1.0,3.0,77,0.00,,,0.00,,2013-03-05 08:11:00,
2013-03-05 03:21:00,29.0,23.0,30.07,West,278,0.0,3.0,79,0.00,,,0.00,,2013-03-05 08:21:00,
2013-03-05 03:31:00,29.0,23.0,30.08,West,276,1.0,3.0,79,0.00,,,0.00,,2013-03-05 08:31:00,
2013-03-05 03:41:00,29.0,23.0,30.08,West,276,1.0,3.0,79,0.00,,,0.00,,2013-03-05 08:41:00,
2013-03-05 03:52:00,29.0,23.0,30.09,WSW,253,1.0,2.0,79,0.00,,,0.00,,2013-03-05 08:52:00,
2013-03-05 04:01:00,29.0,23.0,30.09,West,274,1.0,3.0,78,0.00,,,0.00,,2013-03-05 09:01:00,
2013-03-05 04:11:00,29.0,23.0,30.09,West,274,1.0,3.0,78,0.00,,,0.00,,2013-03-05 09:11:00,
2013-03-05 04:21:00,30.0,24.0,30.10,WNW,284,1.0,2.0,78,0.00,,,0.00,,2013-03-05 09:21:00,
2013-03-05 04:32:00,30.0,24.0,30.10,WNW,284,1.0,2.0,77,0.00,,,0.00,,2013-03-05 09:32:00,
2013-03-05 04:43:00,30.0,24.0,30.10,WNW,284,1.0,2.0,77,0.00,,,0.00,,2013-03-05 09:43:00,
2013-03-05 04:52:00,30.0,24.0,30.11,SW,228,1.0,2.0,78,0.00,,,0.00,,2013-03-05 09:52:00,
2013-03-05 05:01:00,30.0,24.0,30.12,WNW,287,1.0,3.0,78,0.00,,,0.00,,2013-03-05 10:01:00,
2013-03-05 05:11:00,30.0,24.0,30.12,WNW,287,1.0,3.0,78,0.00,,,0.00,,2013-03-05 10:11:00,
2013-03-05 05:22:00,30.0,24.0,30.13,WNW,284,2.0,3.0,77,0.00,,,0.00,,2013-03-05 10:22:00,
2013-03-05 05:32:00,30.0,24.0,30.13,WSW,258,1.0,3.0,77,0.00,,,0.00,,2013-03-05 10:32:00,
2013-03-05 05:42:00,30.0,24.0,30.13,WSW,258,1.0,3.0,77,0.00,,,0.00,,2013-03-05 10:42:00,
2013-03-05 05:52:00,30.0,24.0,30.14,West,278,1.0,2.0,78,0.00,,,0.00,,2013-03-05 10:52:00,
2013-03-05 06:01:00,30.0,24.0,30.14,West,274,0.0,2.0,78,0.00,,,0.00,,2013-03-05 11:01:00,
2013-03-05 06:11:00,30.0,24.0,30.14,West,274,0.0,2.0,78,0.00,,,0.00,,2013-03-05 11:11:00,
2013-03-05 06:22:00,30.0,24.0,30.15,NW,307,0.0,3.0,79,0.00,,,0.00,,2013-03-05 11:22:00,
2013-03-05 06:32:00,30.0,24.0,30.15,WNW,287,1.0,3.0,78,0.00,,,0.00,,2013-03-05 11:32:00,
2013-03-05 06:42:00,30.0,24.0,30.15,WNW,287,1.0,3.0,78,0.00,,,0.00,,2013-03-05 11:42:00,
2013-03-05 06:52:00,29.0,23.0,30.16,West,270,1.0,3.0,79,0.00,,,0.00,,2013-03-05 11:52:00,
2013-03-05 07:02:00,30.0,24.0,30.16,West,267,1.0,3.0,79,0.00,,,0.00,,2013-03-05 12:02:00,
2013-03-05 07:12:00,30.0,24.0,30.16,West,267,1.0,3.0,79,0.00,,,0.00,,2013-03-05 12:12:00,
2013-03-05 07:22:00,30.0,24.0,30.17,WNW,283,0.0,2.0,78,0.00,,,0.00,,2013-03-05 12:22:00,
2013-03-05 07:32:00,30.0,24.0,30.18,SW,229,1.0,2.0,77,0.00,,,0.00,,2013-03-05 12:32:00,
2013-03-05 07:42:00,30.0,24.0,30.18,SW,229,1.0,2.0,77,0.00,,,0.00,,2013-03-05 12:42:00,
2013-03-05 07:53:00,31.0,24.0,30.19,West,273,1.0,2.0,76,0.00,,,0.00,,2013-03-05 12:53:00,
2013-03-05 08:02:00,32.0,25.0,30.19,SW,232,1.0,2.0,76,0.00,,,0.00,,2013-03-05 13:02:00,
2013-03-05 08:12:00,32.0,25.0,30.19,SW,232,1.0,2.0,76,0.00,,,0.00,,2013-03-05 13:12:00,
2013-03-05 08:22:00,33.0,26.0,30.20,West,266,0.0,3.0,74,0.00,,,0.00,,2013-03-05 13:22:00,
2013-03-05 08:32:00,33.0,25.0,30.20,West,271,0.0,3.0,73,0.00,,,0.00,,2013-03-05 13:32:00,
2013-03-05 08:42:00,33.0,25.0,30.20,West,271,0.0,3.0,73,0.00,,,0.00,,2013-03-05 13:42:00,
2013-03-05 08:52:00,34.0,26.0,30.21,West,279,1.0,2.0,73,0.00,,,0.00,,2013-03-05 13:52:00,
2013-03-05 09:02:00,34.0,26.0,30.21,West,280,1.0,3.0,71,0.00,,,0.00,,2013-03-05 14:02:00,
2013-03-05 09:11:00,34.0,26.0,30.21,West,280,1.0,3.0,71,0.00,,,0.00,,2013-03-05 14:11:00,
2013-03-05 09:22:00,36.0,27.0,30.22,WNW,293,1.0,2.0,70,0.00,,,0.00,,2013-03-05 14:22:00,
2013-03-05 09:32:00,36.0,27.0,30.22,West,278,1.0,2.0,69,0.00,,,0.00,,2013-03-05 14:32:00,
2013-03-05 09:42:00,36.0,27.0,30.22,West,278,1.0,2.0,69,0.00,,,0.00,,2013-03-05 14:42:00,
2013-03-05 09:52:00,37.0,27.0,30.22,WNW,297,1.0,3.0,68,0.00,,,0.00,,2013-03-05 14:52:00,
2013-03-05 10:02:00,38.0,28.0,30.22,West,269,1.0,3.0,68,0.00,,,0.00,,2013-03-05 15:02:00,
2013-03-05 10:11:00,38.0,28.0,30.22,West,269,1.0,3.0,68,0.00,,,0.00,,2013-03-05 15:11:00,
2013-03-05 10:22:00,38.0,28.0,30.22,WSW,252,1.0,3.0,67,0.00,,,0.00,,2013-03-05 15:22:00,
2013-03-05 10:32:00,39.0,30.0,30.22,West,280,0.0,3.0,69,0.00,,,0.00,,2013-03-05 15:32:00,
2013-03-05 10:42:00,39.0,30.0,30.22,West,280,0.0,3.0,69,0.00,,,0.00,,2013-03-05 15:42:00,
2013-03-05 10:52:00,40.0,29.0,30.22,WSW,256,2.0,6.0,65,0.00,,,0.00,,2013-03-05 15:52:00,
2013-03-05 11:01:00,41.0,29.0,30.22,WNW,294,2.0,3.0,63,0.00,,,0.00,,2013-03-05 16:01:00,
2013-03-05 11:11:00,41.0,29.0,30.22,WNW,294,2.0,3.0,63,0.00,,,0.00,,2013-03-05 16:11:00,
2013-03-05 11:22:00,42.0,30.0,30.22,WSW,249,0.0,3.0,63,0.00,,,0.00,,2013-03-05 16:22:00,
2013-03-05 11:32:00,42.0,31.0,30.22,WSW,246,1.0,3.0,64,0.00,,,0.00,,2013-03-05 16:32:00,
2013-03-05 11:42:00,42.0,31.0,30.22,WSW,246,1.0,3.0,64,0.00,,,0.00,,2013-03-05 16:42:00,
2013-03-05 11:52:00,43.0,31.0,30.22,West,278,2.0,3.0,63,0.00,,,0.00,,2013-03-05 16:52:00,
2013-03-05 12:01:00,44.0,32.0,30.22,NE,45,1.0,6.0,62,0.00,,,0.00,,2013-03-05 17:01:00,
2013-03-05 12:11:00,44.0,32.0,30.22,NE,45,1.0,6.0,62,0.00,,,0.00,,2013-03-05 17:11:00,
2013-03-05 12:21:00,44.0,31.0,30.22,NE,36,1.0,5.0,60,0.00,,,0.00,,2013-03-05 17:21:00,
2013-03-05 12:32:00,45.0,32.0,30.22,ENE,72,1.0,3.0,59,0.00,,,0.00,,2013-03-05 17:32:00,
2013-03-05 12:42:00,45.0,32.0,30.22,ENE,72,1.0,3.0,59,0.00,,,0.00,,2013-03-05 17:42:00,
2013-03-05 12:53:00,45.0,31.0,30.22,NNE,22,0.0,3.0,58,0.00,,,0.00,,2013-03-05 17:53:00,
2013-03-05 13:02:00,45.0,32.0,30.22,ENE,64,0.0,5.0,60,0.00,,,0.00,,2013-03-05 18:02:00,
2013-03-05 13:11:00,45.0,32.0,30.22,ENE,64,0.0,5.0,60,0.00,,,0.00,,2013-03-05 18:11:00,
2013-03-05 13:22:00,44.0,31.0,30.22,NE,51,1.0,2.0,61,0.00,,,0.00,,2013-03-05 18:22:00,
2013-03-05 13:32:00,44.0,31.0,30.22,East,89,1.0,7.0,60,0.00,,,0.00,,2013-03-05 18:32:00,
2013-03-05 13:42:00,44.0,31.0,30.22,East,89,1.0,7.0,60,0.00,,,0.00,,2013-03-05 18:42:00,
2013-03-05 13:53:00,44.0,33.0,30.24,ENE,76,2.0,3.0,66,0.00,,,0.00,,2013-03-05 18:53:00,
2013-03-05 14:01:00,43.0,34.0,30.24,ESE,104,1.0,3.0,69,0.00,,,0.00,,2013-03-05 19:01:00,
2013-03-05 14:11:00,43.0,34.0,30.24,ESE,104,1.0,3.0,69,0.00,,,0.00,,2013-03-05 19:11:00,
2013-03-05 14:21:00,42.0,34.0,30.25,East,88,2.0,5.0,72,0.00,,,0.00,,2013-03-05 19:21:00,
2013-03-05 14:32:00,42.0,34.0,30.25,NNE,27,1.0,3.0,73,0.00,,,0.00,,2013-03-05 19:32:00,
2013-03-05 14:42:00,42.0,34.0,30.25,NNE,27,1.0,3.0,73,0.00,,,0.00,,2013-03-05 19:42:00,
2013-03-05 14:52:00,41.0,33.0,30.26,ENE,78,2.0,3.0,74,0.00,,,0.00,,2013-03-05 19:52:00,
2013-03-05 15:01:00,41.0,33.0,30.26,SE,140,0.0,2.0,74,0.00,,,0.00,,2013-03-05 20:01:00,
2013-03-05 15:11:00,42.0,34.0,30.26,East,98,1.0,2.0,74,0.00,,,0.00,,2013-03-05 20:11:00,
2013-03-05 15:22:00,42.0,34.0,30.26,East,98,1.0,2.0,74,0.00,,,0.00,,2013-03-05 20:22:00,
2013-03-05 15:32:00,42.0,34.0,30.26,East,96,0.0,2.0,74,0.00,,,0.00,,2013-03-05 20:32:00,
2013-03-05 15:42:00,42.0,34.0,30.26,East,96,0.0,2.0,74,0.00,,,0.00,,2013-03-05 20:42:00,
2013-03-05 15:52:00,42.0,34.0,30.27,ESE,120,0.0,2.0,72,0.00,,,0.00,,2013-03-05 20:52:00,
2013-03-05 16:02:00,43.0,35.0,30.27,East,84,0.0,2.0,72,0.00,,,0.00,,2013-03-05 21:02:00,
2013-03-05 16:11:00,43.0,35.0,30.27,East,84,0.0,2.0,72,0.00,,,0.00,,2013-03-05 21:11:00,
2013-03-05 16:22:00,42.0,34.0,30.28,ESE,108,1.0,3.0,73,0.00,,,0.00,,2013-03-05 21:22:00,
2013-03-05 16:32:00,42.0,35.0,30.28,East,91,1.0,2.0,75,0.00,,,0.00,,2013-03-05 21:32:00,
2013-03-05 16:42:00,42.0,35.0,30.28,East,91,1.0,2.0,75,0.00,,,0.00,,2013-03-05 21:42:00,
2013-03-05 16:52:00,42.0,35.0,30.29,ESE,120,1.0,2.0,77,0.00,,,0.00,,2013-03-05 21:52:00,
2013-03-05 17:01:00,41.0,35.0,30.29,ENE,77,0.0,2.0,78,0.00,,,0.00,,2013-03-05 22:01:00,
2013-03-05 17:11:00,41.0,35.0,30.29,ENE,77,0.0,2.0,78,0.00,,,0.00,,2013-03-05 22:11:00,
2013-03-05 17:22:00,40.0,34.0,30.30,East,82,0.0,1.0,79,0.00,,,0.00,,2013-03-05 22:22:00,
2013-03-05 17:32:00,39.0,33.0,30.30,East,82,0.0,0.0,80,0.00,,,0.00,,2013-03-05 22:32:00,
2013-03-05 17:42:00,39.0,33.0,30.30,East,82,0.0,0.0,80,0.00,,,0.00,,2013-03-05 22:42:00,
2013-03-05 17:52:00,38.0,33.0,30.30,East,82,0.0,0.0,82,0.00,,,0.00,,2013-03-05 22:52:00,
2013-03-05 18:01:00,38.0,33.0,30.31,East,82,0.0,0.0,83,0.00,,,0.00,,2013-03-05 23:01:00,
2013-03-05 18:11:00,38.0,33.0,30.31,East,82,0.0,0.0,83,0.00,,,0.00,,2013-03-05 23:11:00,
2013-03-05 18:21:00,37.0,33.0,30.31,East,82,0.0,0.0,84,0.00,,,0.00,,2013-03-05 23:21:00,
2013-03-05 18:32:00,36.0,32.0,30.31,East,82,0.0,0.0,85,0.00,,,0.00,,2013-03-05 23:32:00,
2013-03-05 18:42:00,36.0,32.0,30.31,East,82,0.0,0.0,85,0.00,,,0.00,,2013-03-05 23:42:00,
2013-03-05 18:53:00,35.0,31.0,30.32,East,82,0.0,0.0,86,0.00,,,0.00,,2013-03-05 23:53:00,
2013-03-05 19:01:00,34.0,31.0,30.32,East,82,0.0,1.0,88,0.00,,,0.00,,2013-03-06 00:01:00,
2013-03-05 19:11:00,34.0,31.0,30.32,East,82,0.0,1.0,88,0.00,,,0.00,,2013-03-06 00:11:00,
2013-03-05 19:21:00,33.0,30.0,30.32,East,82,0.0,0.0,90,0.00,,,0.00,,2013-03-06 00:21:00,
2013-03-05 19:32:00,32.0,30.0,30.32,East,82,0.0,0.0,91,0.00,,,0.00,,2013-03-06 00:32:00,
2013-03-05 19:42:00,32.0,30.0,30.32,East,82,0.0,0.0,91,0.00,,,0.00,,2013-03-06 00:42:00,
2013-03-05 19:52:00,32.0,30.0,30.32,East,82,0.0,0.0,92,0.00,,,0.00,,2013-03-06 00:52:00,
2013-03-05 20:02:00,32.0,30.0,30.33,East,82,0.0,0.0,93,0.00,,,0.00,,2013-03-06 01:02:00,
2013-03-05 20:11:00,32.0,30.0,30.33,East,82,0.0,0.0,93,0.00,,,0.00,,2013-03-06 01:11:00,
2013-03-05 20:21:00,32.0,30.0,30.34,East,82,0.0,0.0,93,0.00,,,0.00,,2013-03-06 01:21:00,
2013-03-05 20:32:00,32.0,30.0,30.34,East,82,0.0,0.0,94,0.00,,,0.00,,2013-03-06 01:32:00,
2013-03-05 20:42:00,32.0,30.0,30.34,East,82,0.0,0.0,94,0.00,,,0.00,,2013-03-06 01:42:00,
2013-03-05 20:52:00,32.0,30.0,30.33,East,82,0.0,0.0,94,0.00,,,0.00,,2013-03-06 01:52:00,
2013-03-05 21:01:00,32.0,30.0,30.33,East,82,0.0,0.0,94,0.00,,,0.00,,2013-03-06 02:01:00,
2013-03-05 21:11:00,32.0,30.0,30.33,East,82,0.0,0.0,94,0.00,,,0.00,,2013-03-06 02:11:00,
2013-03-05 21:22:00,32.0,30.0,30.33,East,82,0.0,0.0,93,0.00,,,0.00,,2013-03-06 02:22:00,
2013-03-05 21:32:00,32.0,30.0,30.33,East,82,0.0,0.0,93,0.00,,,0.00,,2013-03-06 02:32:00,
2013-03-05 21:42:00,32.0,30.0,30.33,East,82,0.0,0.0,93,0.00,,,0.00,,2013-03-06 02:42:00,
2013-03-05 21:52:00,32.0,30.0,30.33,East,82,0.0,0.0,94,0.00,,,0.00,,2013-03-06 02:52:00,
2013-03-05 22:02:00,32.0,30.0,30.33,West,265,0.0,1.0,94,0.00,,,0.00,,2013-03-06 03:02:00,
2013-03-05 22:11:00,32.0,30.0,30.33,West,265,0.0,1.0,94,0.00,,,0.00,,2013-03-06 03:11:00,
2013-03-05 22:22:00,33.0,32.0,30.33,West,265,0.0,0.0,95,0.00,,,0.00,,2013-03-06 03:22:00,
2013-03-05 22:32:00,33.0,32.0,30.33,West,265,0.0,0.0,95,0.00,,,0.00,,2013-03-06 03:32:00,
2013-03-05 22:42:00,33.0,32.0,30.33,West,265,0.0,0.0,95,0.00,,,0.00,,2013-03-06 03:42:00,
2013-03-05 22:53:00,34.0,33.0,30.34,North,352,0.0,1.0,96,0.00,,,0.00,,2013-03-06 03:53:00,
2013-03-05 23:02:00,34.0,33.0,30.34,North,352,0.0,0.0,96,0.00,,,0.00,,2013-03-06 04:02:00,
2013-03-05 23:11:00,34.0,33.0,30.34,North,352,0.0,0.0,96,0.00,,,0.00,,2013-03-06 04:11:00,
2013-03-05 23:22:00,34.0,33.0,30.34,North,352,0.0,0.0,96,0.00,,,0.00,,2013-03-06 04:22:00,
2013-03-05 23:32:00,34.0,33.0,30.35,North,352,0.0,0.0,96,0.00,,,0.00,,2013-03-06 04:32:00,
2013-03-05 23:42:00,34.0,33.0,30.35,North,352,0.0,0.0,96,0.00,,,0.00,,2013-03-06 04:42:00,
2013-03-05 23:52:00,34.0,33.0,30.36,NW,305,0.0,0.0,96,0.01,,,0.01,,2013-03-06 04:52:00,